Showing default

HAIYANG 1C, 43609

Orbit data source: Space-Track

HAIYANG 1C, 43609 is a Chinese payload satellite in SSO that was launched on Fri, 07 Sep 2018 UTC via a CHANG ZHENG 2C launch vehicle from the Taiyaun Space Center, China (TSC). Payload-class satellites include a variety of spacecraft equipped with specific instruments for various scientific and technological missions. These include communications satellites like Starlink; space stations such as the ISS; scientific satellites like the Hubble; Earth observation satellites from companies like Planet Labs, Umbra, and HawkEye 360; GPS; miniature CubeSats for education and research; and military/defense satellites.

Loading next visibility...
Identifier
43609, 2018-068A
Orbit
SSO
Last TLE update
2 days ago
Origin
Manufacturer
DFH
Mission
Operational Civil Imaging
Bus & Motor
CAST-968, Unknown motor
Mass
442 kg wet, 429 kg dry
Launch date (UTC)
2018-09-07 (7 years ago)
Launch vehicle
CHANG ZHENG 2C
Launch site
Taiyaun Space Center, China (TSC)
Object type
Payload
Rocket body
Debris
Shape & HBR
Box + 2 Pan, 7.5 m
Radar Cross Section
3.660 m², Large (>1 m²)

Expand to show TLE details & history

TLE from 2 days ago
0 HAIYANG 1C
1 43609U 18068A   25119.17262396  .00000309  00000-0  12606-3 0  9999
2 43609  98.5636 191.3698 0009296 238.5331 121.4946 14.34149349347743
Epoch: 2025-04-29T04:08Z
Definitive object data (Epoch: 2025-04-29T04:08:34.71Z)
Latitude
0.00003°
Longitude
-88.15093°
Altitude
784.314 km
Speed
7.46 km/s
True Right ascension
12h 45m 28s
True Declination
0° 00' 00"
Sunlit
Object was in full shadow at TLE epoch
Visualization TLE readout
Latitude
43.45932°
Longitude
-94.50625°
Altitude
790.9 km
Speed
7.459 km/s
Apparent Right ascension
15h 44m 59s
Apparent Declination
7° 57' 02"
Sunlit
Object is in daylight
Visualization observer readout
Local Sidereal Time
07:29:09
Azimuth
60.695° ENE
Elevation
-19.607°
Doppler factor
1
Orbital elements
Apogee altitude
781.677 km
Perigee altitude
768.378 km
Semi-major axis
7,153.164 km
Eccentricity
0.0009296
Inclination
98.5636°
RAAN
191.3698°
Arg. of periapsis
238.5331°
True anomaly
121.58538°
Mean anomaly
121.4946°
Eccentric anomaly
121.53999°
Mean motion
3.58753 °/min
BSTAR
0.00012606
Orbital period
100.35 mins
Loading maneuver chart data...
Loading SW <> Apogee altitude chart data...
Loading historical data...
Loading historical data...
Loading historical data...
Loading historical data...
Loading historical data...
Loading historical data...
Loading historical data...
Other satellites on launch #68 in the year 2018 (2018-09-07 UTC)

HAIYANG 1C Visibility forecast

Observer location: undefined°, undefined°

Span
Click to sort rows by Start time (UTC) header in descending order
Start Az.
Max El. time (UTC)
Max El. Az.
Max El.
End time (UTC)
End Az.
4 mins2025-05-01 03:12:56.578Z81.757° E2025-05-01 03:14:56.578Z57.762° ENE12.687°2025-05-01 03:16:56.578Z34.514° NE
8 mins2025-05-01 04:49:56.578Z171.235° S2025-05-01 04:52:56.578Z207.768° SW44.06°2025-05-01 04:57:56.578Z344.023° N
7 mins2025-05-01 17:01:56.578Z44.68° NE2025-05-01 17:04:56.578Z103.865° ESE30.671°2025-05-01 17:08:56.578Z162.135° S
6 mins2025-05-01 18:40:56.578Z337.375° NNW2025-05-01 18:43:56.578Z290.048° WNW23.662°2025-05-01 18:46:56.578Z246.377° WSW
|